When you browse on this site, cookies collect data to enhance your experience and personalize the content and advertising you see.
Visit our Privacy Policy to learn more. By continuing to use the site, you agree to this use of cookies and data.
  • In United Kingdom
  • List of Countries
  • For 7 days
  • Water Temperature
  • Weather Map
  • Weather Widgets
  • user-avatar
    Login

    Hourly Weather Pivni

    Today, 22 August, Thursday

    Time Temperature Precipitation Wind Pressure Humidity
    00:00 +22°C° 0 mm 1 mps 748 mmHg 56%
    01:00 +21°C° 0 mm 2 mps 748 mmHg 59%
    02:00 +20°C° 0 mm 3 mps 748 mmHg 61%
    03:00 +20°C° 0 mm 3 mps 748 mmHg 72%
    04:00 +19°C° 0 mm 4 mps 748 mmHg 82%
    05:00 +19°C° 0 mm 5 mps 748 mmHg 93%
    06:00 +19°C° 0 mm 5 mps 749 mmHg 90%
    07:00 +19°C° 0 mm 5 mps 749 mmHg 88%
    08:00 +19°C° 0 mm 5 mps 750 mmHg 84%
    09:00 +20°C° 0 mm 5 mps 750 mmHg 81%
    10:00 +21°C° 0 mm 5 mps 750 mmHg 78%
    11:00 +21°C° 0 mm 5 mps 750 mmHg 75%
    12:00 +22°C° 0 mm 5 mps 750 mmHg 72%
    13:00 +23°C° 0 mm 5 mps 750 mmHg 68%
    14:00 +26°C° 0 mm 5 mps 750 mmHg 65%
    15:00 +25°C° 0 mm 5 mps 750 mmHg 65%
    16:00 +25°C° 0 mm 5 mps 750 mmHg 65%
    17:00 +25°C° 0 mm 5 mps 750 mmHg 64%
    18:00 +22°C° 0 mm 5 mps 750 mmHg 68%
    19:00 +21°C° 0 mm 4 mps 750 mmHg 72%
    20:00 +20°C° 0 mm 4 mps 751 mmHg 76%
    21:00 +19°C° 0 mm 4 mps 751 mmHg 78%
    22:00 +18°C° 0 mm 3 mps 751 mmHg 81%
    23:00 +18°C° 0 mm 3 mps 751 mmHg 83%

    Tomorrow, 23 August, Friday

    Time Temperature Precipitation Wind Pressure Humidity
    00:00 +17°C° 0 mm 3 mps 751 mmHg 85%
    01:00 +17°C° 0 mm 3 mps 751 mmHg 88%
    02:00 +16°C° 0 mm 3 mps 751 mmHg 91%
    03:00 +16°C° 0 mm 3 mps 751 mmHg 92%
    04:00 +14°C° 0 mm 3 mps 751 mmHg 93%
    05:00 +14°C° 0 mm 3 mps 751 mmHg 94%
    06:00 +15°C° 0 mm 4 mps 751 mmHg 88%
    07:00 +17°C° 0 mm 4 mps 751 mmHg 83%
    08:00 +18°C° 0 mm 4 mps 751 mmHg 78%
    09:00 +20°C° 0 mm 4 mps 751 mmHg 74%
    10:00 +21°C° 0 mm 5 mps 752 mmHg 70%
    11:00 +22°C° 0 mm 5 mps 752 mmHg 67%
    12:00 +22°C° 0 mm 5 mps 752 mmHg 64%
    13:00 +23°C° 0 mm 5 mps 751 mmHg 62%
    14:00 +23°C° 0 mm 5 mps 751 mmHg 59%
    15:00 +23°C° 0 mm 5 mps 751 mmHg 59%
    16:00 +23°C° 0 mm 5 mps 751 mmHg 58%
    17:00 +23°C° 0 mm 4 mps 751 mmHg 57%
    18:00 +21°C° 0 mm 4 mps 751 mmHg 62%
    19:00 +20°C° 0 mm 4 mps 751 mmHg 67%
    20:00 +18°C° 0 mm 3 mps 751 mmHg 72%
    21:00 +17°C° 0 mm 3 mps 751 mmHg 73%
    22:00 +17°C° 0 mm 3 mps 751 mmHg 74%
    23:00 +16°C° 0 mm 3 mps 751 mmHg 75%

    Day after tomorrow, 24 August, Saturday

    Time Temperature Precipitation Wind Pressure Humidity
    00:00 +14°C° 0 mm 3 mps 751 mmHg 78%
    01:00 +14°C° 0 mm 3 mps 751 mmHg 81%
    02:00 +13°C° 0 mm 3 mps 751 mmHg 84%
    03:00 +13°C° 0 mm 3 mps 751 mmHg 87%
    04:00 +12°C° 0 mm 3 mps 751 mmHg 89%
    05:00 +12°C° 0 mm 3 mps 751 mmHg 92%
    06:00 +14°C° 0 mm 3 mps 751 mmHg 86%
    07:00 +17°C° 0 mm 3 mps 752 mmHg 79%
    08:00 +18°C° 0 mm 4 mps 752 mmHg 73%
    09:00 +20°C° 0 mm 4 mps 752 mmHg 67%
    10:00 +22°C° 0 mm 4 mps 752 mmHg 60%
    11:00 +25°C° 0 mm 4 mps 751 mmHg 54%
    12:00 +26°C° 0 mm 4 mps 751 mmHg 50%
    13:00 +26°C° 0 mm 3 mps 751 mmHg 46%
    14:00 +27°C° 0 mm 3 mps 751 mmHg 42%
    15:00 +27°C° 0 mm 3 mps 751 mmHg 43%
    16:00 +26°C° 0 mm 3 mps 750 mmHg 45%
    17:00 +26°C° 0 mm 3 mps 750 mmHg 46%
    18:00 +24°C° 0 mm 3 mps 750 mmHg 48%
    19:00 +21°C° 0 mm 3 mps 750 mmHg 50%
    20:00 +19°C° 0 mm 2 mps 750 mmHg 52%
    21:00 +18°C° 0 mm 2 mps 750 mmHg 53%
    22:00 +17°C° 0 mm 2 mps 750 mmHg 54%
    23:00 +17°C° 0 mm 2 mps 751 mmHg 56%

    25 August, Sunday

    Time Temperature Precipitation Wind Pressure Humidity
    00:00 +16°C° 0 mm 2 mps 750 mmHg 58%
    01:00 +16°C° 0 mm 2 mps 750 mmHg 59%
    02:00 +15°C° 0 mm 2 mps 750 mmHg 61%
    03:00 +15°C° 0 mm 2 mps 750 mmHg 63%
    04:00 +15°C° 0 mm 2 mps 750 mmHg 64%
    05:00 +15°C° 0 mm 2 mps 750 mmHg 66%
    06:00 +16°C° 0 mm 2 mps 750 mmHg 64%
    07:00 +18°C° 0 mm 2 mps 750 mmHg 62%
    08:00 +19°C° 0 mm 3 mps 751 mmHg 61%
    09:00 +21°C° 0 mm 3 mps 751 mmHg 55%
    10:00 +22°C° 0 mm 3 mps 751 mmHg 50%
    11:00 +25°C° 0 mm 3 mps 751 mmHg 45%
    12:00 +25°C° 0 mm 3 mps 751 mmHg 43%
    13:00 +26°C° 0 mm 3 mps 751 mmHg 41%
    14:00 +27°C° 0 mm 3 mps 750 mmHg 38%
    15:00 +26°C° 0 mm 3 mps 750 mmHg 41%
    16:00 +26°C° 0 mm 3 mps 750 mmHg 44%
    17:00 +26°C° 0 mm 2 mps 750 mmHg 46%
    18:00 +24°C° 0 mm 2 mps 750 mmHg 50%
    19:00 +21°C° 0 mm 2 mps 750 mmHg 54%
    20:00 +19°C° 0 mm 2 mps 750 mmHg 58%
    21:00 +18°C° 0 mm 2 mps 750 mmHg 61%
    22:00 +18°C° 0 mm 2 mps 751 mmHg 64%
    23:00 +17°C° 0 mm 2 mps 751 mmHg 66%

    26 August, Monday

    Time Temperature Precipitation Wind Pressure Humidity
    00:00 +17°C° 0 mm 2 mps 751 mmHg 72%
    01:00 +16°C° 0 mm 2 mps 751 mmHg 77%
    02:00 +16°C° 0 mm 2 mps 751 mmHg 82%
    03:00 +16°C° 0 mm 2 mps 751 mmHg 85%
    04:00 +15°C° 0 mm 2 mps 751 mmHg 88%
    05:00 +15°C° 0 mm 2 mps 751 mmHg 92%
    06:00 +17°C° 0 mm 2 mps 751 mmHg 86%
    07:00 +19°C° 0 mm 3 mps 751 mmHg 79%
    08:00 +21°C° 0 mm 3 mps 751 mmHg 73%
    09:00 +22°C° 0 mm 3 mps 752 mmHg 67%
    10:00 +25°C° 0 mm 3 mps 752 mmHg 60%
    11:00 +26°C° 0 mm 4 mps 752 mmHg 54%
    12:00 +27°C° 0 mm 4 mps 752 mmHg 51%
    13:00 +27°C° 0 mm 4 mps 751 mmHg 48%
    14:00 +28°C° 0 mm 3 mps 751 mmHg 45%
    15:00 +28°C° 0 mm 3 mps 751 mmHg 45%
    16:00 +27°C° 0 mm 3 mps 750 mmHg 46%
    17:00 +27°C° 0 mm 3 mps 750 mmHg 47%
    18:00 +25°C° 0 mm 3 mps 750 mmHg 50%
    19:00 +22°C° 0 mm 3 mps 750 mmHg 53%
    20:00 +20°C° 0 mm 3 mps 750 mmHg 56%
    21:00 +19°C° 0 mm 3 mps 750 mmHg 55%
    22:00 +18°C° 0 mm 3 mps 750 mmHg 54%
    23:00 +17°C° 0 mm 3 mps 750 mmHg 53%

    27 August, Tuesday

    Time Temperature Precipitation Wind Pressure Humidity
    00:00 +17°C° 0 mm 2 mps 750 mmHg 56%
    01:00 +16°C° 0 mm 2 mps 750 mmHg 59%
    02:00 +16°C° 0 mm 2 mps 750 mmHg 62%
    03:00 +15°C° 0 mm 2 mps 749 mmHg 64%
    04:00 +15°C° 0 mm 2 mps 749 mmHg 66%
    05:00 +14°C° 0 mm 2 mps 749 mmHg 69%
    06:00 +16°C° 0 mm 1 mps 749 mmHg 65%
    07:00 +19°C° 0 mm 1 mps 749 mmHg 61%
    08:00 +21°C° 0 mm 1 mps 749 mmHg 57%
    09:00 +21°C° 0 mm 2 mps 749 mmHg 52%
    10:00 +24°C° 0 mm 2 mps 749 mmHg 46%
    11:00 +26°C° 0 mm 2 mps 749 mmHg 41%
    12:00 +26°C° 0 mm 2 mps 749 mmHg 39%
    13:00 +27°C° 0 mm 2 mps 748 mmHg 38%
    14:00 +28°C° 0 mm 2 mps 748 mmHg 36%
    15:00 +27°C° 0 mm 2 mps 748 mmHg 38%
    16:00 +27°C° 0 mm 2 mps 747 mmHg 40%
    17:00 +27°C° 0 mm 2 mps 747 mmHg 42%
    18:00 +25°C° 0 mm 2 mps 747 mmHg 47%
    19:00 +21°C° 0 mm 2 mps 747 mmHg 52%
    20:00 +20°C° 0 mm 1 mps 747 mmHg 57%
    21:00 +20°C° 0 mm 1 mps 747 mmHg 58%
    22:00 +19°C° 0 mm 1 mps 747 mmHg 60%
    23:00 +18°C° 0 mm 1 mps 747 mmHg 62%
    Show more